Location: ??
(31.9467°N, 34.8903°E)
Time: 12:32:07
(UTC+00:00)

CZ-4 R/B - Pass Details

Date: 29 October 2020
Orbit: 532 x 598 km, 97.7° (Epoch: 26 November)

Event Time Altitude Azimuth Distance (km) Brightness Sun altitude
Rises 15:43:57 0° 143° (SE) 2,708 4.6 -11.4°
Reaches altitude 10° 15:46:18 10° 131° (SE) 1,808 3.6 -11.9°
Maximum altitude 15:49:36 27° 73° (ENE) 1,067 2.2 -12.5°
Drops below altitude 10° 15:52:52 10° 15° (NNE) 1,795 3.7 -13.2°
Sets 15:55:12 0° 3° (N) 2,684 4.7 -13.7°
